Regional Weather Roundup
Issued by NWS State College, PA

Home | Current Version | Previous Version | Graphics & Text | Print | Product List | Glossary On
Versions: 1 2 3 4 5 6 7 8 9 10 11 12 13 14 15 16 17 18 19 20 21 22 23 24 25 26 27 28 29 30 31 32 33 34 35 36 37 38 39 40 41 42 43 44 45 46 47 48 49 50
000
ASUS41 KCTP 231510
RWRCTP

REGIONAL WEATHER ROUNDUP
NATIONAL WEATHER SERVICE STATE COLLEGE PA
1100 AM EDT SAT JUL 23 2016

Note: "fair" indicates few or no clouds below 12,000 feet with no
significant weather and/or obstructions to visibility.

* = STATION THAT DOES NOT REPORT PRECIPITATION /E.G. RAIN...SNOW...ETC/
    THUNDER OR FOG.

PAZ002>004-007>009-013>016-020>023-029>032-231600-
WESTERN PENNSYLVANIA

CITY           SKY/WX    TMP DP  RH WIND       PRES   REMARKS
ERIE           SUNNY     86  67  52 SW7       29.97F
MEADVILLE      SUNNY     81  66  60 MISG      30.03R
FRANKLIN*      PTSUNNY   82  70  65 W6        30.05S
NEW CASTLE     FAIR      85  73  67 SW6       30.02R
BEAVER COUNTY  NOT AVBL
BUTLER*        SUNNY     84  72  65 NW3       30.05S
PITTSBURGH INT MOSUNNY   84  70  62 SW3       30.02S
PITTSBURGH     MOSUNNY   83  70  64 CALM      30.03R
INDIANA*       MOSUNNY   81  73  78 SW8       30.07R
LATROBE        PTSUNNY   77  73  88 SW9       30.05R
WASHINGTON CO* PTSUNNY   82  72  69 S6        30.05S
$$

PAZ004>006-010>012-017>019-024>028-033>037-041-042-045-046-049>053-231600-
CENTRAL PENNSYLVANIA

CITY           SKY/WX    TMP DP  RH WIND       PRES   REMARKS
BRADFORD       SUNNY     80  57  45 W9        30.04S
DUBOIS         MOSUNNY   81  69  67 NW9       30.04R
CLEARFIELD     PTSUNNY   83  68  60 W10       30.03R
JOHNSTOWN      MOSUNNY   79  68  69 NW12      30.07S
ALTOONA        MOSUNNY   87  68  52 W8        30.02S
STATE COLLEGE  PTSUNNY   81  70  69 W9        30.00R
WILLIAMSPORT   SUNNY     90  55  30 W9        29.91S
SELINSGROVE    SUNNY     89  65  44 VRB5      29.94S
FT INDIANTOWN  SUNNY     89  64  43 W8        29.94R
CAPITAL CITY   MOSUNNY   90  70  51 VRB5      29.93R HX  95
HARRISBURG     MOSUNNY   89  72  56 W7        29.92S HX  96
YORK           PTSUNNY   87  73  62 W8        29.95R
$$

PAZ038>040-043-044-047-048-054-055-060>062-067>071-231600-
EASTERN PENNSYLVANIA

CITY           SKY/WX    TMP DP  RH WIND       PRES   REMARKS
SCRANTON       SUNNY     88  57  34 N18G24    29.92R
MOUNT POCONO   SUNNY     81 N/A N/A NW12G21   29.98R
ALLENTOWN      SUNNY     89  64  43 W7        29.91S
QUAKERTOWN*    SUNNY     90  66  45 CALM      29.93S
READING        SUNNY     92  61  35 NW6       29.91S
LANCASTER      MOSUNNY   86  71  60 W9        29.93S
COATESVILLE    MOSUNNY   86  72  62 VRB7G14   29.96S
POTTSTOWN      SUNNY     90  66  45 NW7       29.92F
BLUE BELL      MOSUNNY   86  70  58 W8        29.90S
DOYLESTOWN     SUNNY     88  62  41 NW9       29.90S
WILLOW GROVE   NOT AVBL
NORTH PHILA    MOSUNNY   92  70  48 W6        29.91S HX  97
PHILADELPHIA   MOSUNNY   89  70  53 W8        29.91R
$$



USA.gov is the U.S. government's official web portal to all federal, state and local government web resources and services.